MSC Bari — A8YD3 — position and weather

sailwx.info

Track history (hours):
 
Tides and Currents Weather Stations Pressure Air Temp Water Temp Dewpoint Dewpoint Depression Visibility Wind Speed Wind Dir Waves Ship Positions

MSC Bari

Last reported at 2014-Aug-30 12:00 UTC. Time now 2014-Sep-02 02:01 UTC.
Position N 12°54' E 055°36'.

Length 366 m; draft 13.5 m.

Type: Ship (hazmat cat A). MMSI: 636092188.

Wind from 200 at 39 knots

Waves 8.0 meters (26 feet), 9 second period

Barometer 1006.0 mb
Air temperature 25.0 ° C
Visibility: greater than 2.2 NM
Dewpoint 22.2 ° C
Water temperature 26.1 ° C

Date/timePositionNaut miles runAvg speedWind from/ knotsBaromVisibWave heightAir tempDewpointWater temp
2014-Aug-30 12:00N 12°54' E 055°36'20417.0 200 / 391006.0 2.2 8.025.022.226.1
2014-Aug-30 00:00N 12°12' E 059°00'48220.1 200 / 281008.510.8 6.025.022.226.5
2014-Aug-29 00:00N 09°30' E 066°42'   270 / 181009.510.8 4.527.021.328.8
2014-Aug-23 03:08N 01°17' E 103°45'0 0.0
2014-Aug-23 02:26N 01°17' E 103°45'0 0.0
2014-Aug-23 01:23N 01°17' E 103°45'0 0.0
2014-Aug-23 00:29N 01°17' E 103°45'0 0.0
2014-Aug-22 23:32N 01°17' E 103°45'0 0.0
2014-Aug-22 22:32N 01°17' E 103°45'0 0.0
2014-Aug-22 20:32N 01°17' E 103°45'0 0.0
2014-Aug-22 19:32N 01°17' E 103°45'0 0.0
2014-Aug-22 18:26N 01°17' E 103°45'0 0.0
2014-Aug-22 17:23N 01°17' E 103°45'0 0.0
2014-Aug-22 15:32N 01°17' E 103°45'0 0.0
2014-Aug-22 14:32N 01°17' E 103°45'0 0.0
2014-Aug-22 13:32N 01°17' E 103°45'0 0.0
2014-Aug-22 12:23N 01°17' E 103°45'0 0.0
2014-Aug-22 11:32N 01°17' E 103°45'0 0.0
2014-Aug-22 10:17N 01°17' E 103°45'0 0.0
2014-Aug-22 09:29N 01°17' E 103°45'0 0.0
2014-Aug-22 08:26N 01°17' E 103°45'0 0.0
2014-Aug-22 07:29N 01°17' E 103°45'0 0.1
2014-Aug-22 06:23N 01°17' E 103°45'0 0.1
2014-Aug-22 05:29N 01°17' E 103°45'0 0.0
2014-Aug-22 04:32N 01°17' E 103°45'0 0.0
2014-Aug-22 03:32N 01°17' E 103°45'0 0.0
2014-Aug-22 02:32N 01°17' E 103°45'0 0.0
2014-Aug-22 00:32N 01°17' E 103°45'0 0.0
2014-Aug-21 22:32N 01°17' E 103°45'0 0.0
2014-Aug-21 21:32N 01°17' E 103°45'0 0.1
2014-Aug-21 20:33N 01°17' E 103°45'2 1.8
2014-Aug-21 19:33N 01°15' E 103°47'1 0.8
2014-Aug-21 18:33N 01°15' E 103°47'2 1.7
2014-Aug-21 17:33N 01°13' E 103°48'5 5.4
2014-Aug-21 16:33N 01°13' E 103°53'  
Track history (hours):
 
Tides and Currents Weather Stations Pressure Air Temp Water Temp Dewpoint Dewpoint Depression Visibility Wind Speed Wind Dir Waves Ship Positions

MSC Bari

Last reported at 2014-Aug-30 12:00 UTC. Time now 2014-Sep-02 02:01 UTC.
Position N 12°54' E 055°36'.

Length 366 m; draft 13.5 m.

Type: Ship (hazmat cat A). MMSI: 636092188.

Wind from 200 at 39 knots

Waves 8.0 meters (26 feet), 9 second period

Barometer 1006.0 mb
Air temperature 25.0 ° C
Visibility: greater than 2.2 NM
Dewpoint 22.2 ° C
Water temperature 26.1 ° C

Date/timePositionNaut miles runAvg speedWind from/ knotsBaromVisibWave heightAir tempDewpointWater temp
2014-Aug-30 12:00N 12°54' E 055°36'20417.0 200 / 391006.0 2.2 8.025.022.226.1
2014-Aug-30 00:00N 12°12' E 059°00'48220.1 200 / 281008.510.8 6.025.022.226.5
2014-Aug-29 00:00N 09°30' E 066°42'   270 / 181009.510.8 4.527.021.328.8
2014-Aug-23 03:08N 01°17' E 103°45'0 0.0
2014-Aug-23 02:26N 01°17' E 103°45'0 0.0
2014-Aug-23 01:23N 01°17' E 103°45'0 0.0
2014-Aug-23 00:29N 01°17' E 103°45'0 0.0
2014-Aug-22 23:32N 01°17' E 103°45'0 0.0
2014-Aug-22 22:32N 01°17' E 103°45'0 0.0
2014-Aug-22 20:32N 01°17' E 103°45'0 0.0
2014-Aug-22 19:32N 01°17' E 103°45'0 0.0
2014-Aug-22 18:26N 01°17' E 103°45'0 0.0
2014-Aug-22 17:23N 01°17' E 103°45'0 0.0
2014-Aug-22 15:32N 01°17' E 103°45'0 0.0
2014-Aug-22 14:32N 01°17' E 103°45'0 0.0
2014-Aug-22 13:32N 01°17' E 103°45'0 0.0
2014-Aug-22 12:23N 01°17' E 103°45'0 0.0
2014-Aug-22 11:32N 01°17' E 103°45'0 0.0
2014-Aug-22 10:17N 01°17' E 103°45'0 0.0
2014-Aug-22 09:29N 01°17' E 103°45'0 0.0
2014-Aug-22 08:26N 01°17' E 103°45'0 0.0
2014-Aug-22 07:29N 01°17' E 103°45'0 0.1
2014-Aug-22 06:23N 01°17' E 103°45'0 0.1
2014-Aug-22 05:29N 01°17' E 103°45'0 0.0
2014-Aug-22 04:32N 01°17' E 103°45'0 0.0
2014-Aug-22 03:32N 01°17' E 103°45'0 0.0
2014-Aug-22 02:32N 01°17' E 103°45'0 0.0
2014-Aug-22 00:32N 01°17' E 103°45'0 0.0
2014-Aug-21 22:32N 01°17' E 103°45'0 0.0
2014-Aug-21 21:32N 01°17' E 103°45'0 0.1
2014-Aug-21 20:33N 01°17' E 103°45'2 1.8
2014-Aug-21 19:33N 01°15' E 103°47'1 0.8
2014-Aug-21 18:33N 01°15' E 103°47'2 1.7
2014-Aug-21 17:33N 01°13' E 103°48'5 5.4
2014-Aug-21 16:33N 01°13' E 103°53'  

Dump ship's entire track history